Location: Cedar Brake
(32.2526°N, 97.8459°W)
Time: 20:56:37
(UTC+00:00)

Geosat - Pass Details

Date: 22 April 2026
Orbit: 758 x 760 km, 108.0° (Epoch: 21 May)

Event Time Altitude Azimuth Distance (km) Brightness Sun altitude
Rises 02:38:26 0° 26° (NNE) 3,221 7.3 -19.1°
Reaches altitude 10° 02:40:44 10° 29° (NNE) 2,292 6.5 -19.5°
Maximum altitude 02:45:43 70° 113° (ESE) 807 3.8 -20.4°
Drops below altitude 10° 02:50:40 10° 197° (SSW) 2,279 6.3 -21.3°
Sets 02:52:56 0° 199° (SSW) 3,201 7.1 -21.7°
